TimeEDT,TemperatureF,Dew PointF,Humidity,Sea Level PressureIn,VisibilityMPH,Wind Direction,Wind SpeedMPH,Gust SpeedMPH,PrecipitationIn,Events,Conditions,WindDirDegrees,DateUTC
12:53 AM,64.0,55.0,73,30.20,10.0,East,4.6,-,N/A,,Clear,90,2013-03-31 04:53:00
1:53 AM,60.1,54.0,80,30.18,10.0,East,6.9,-,N/A,,Clear,90,2013-03-31 05:53:00
2:53 AM,60.1,55.0,83,30.16,10.0,East,5.8,-,N/A,,Clear,80,2013-03-31 06:53:00
3:53 AM,60.1,55.0,83,30.15,10.0,Calm,Calm,-,N/A,,Clear,0,2013-03-31 07:53:00
4:53 AM,60.1,55.9,86,30.14,10.0,Calm,Calm,-,N/A,,Clear,0,2013-03-31 08:53:00
5:53 AM,62.1,57.0,84,30.14,10.0,Calm,Calm,-,N/A,,Clear,0,2013-03-31 09:53:00
6:53 AM,61.0,55.9,83,30.15,10.0,East,3.5,-,N/A,,Clear,90,2013-03-31 10:53:00
7:53 AM,59.0,57.0,93,30.15,10.0,East,4.6,-,N/A,,Clear,100,2013-03-31 11:53:00
8:53 AM,73.0,62.1,68,30.16,10.0,ESE,9.2,-,N/A,,Clear,120,2013-03-31 12:53:00
9:53 AM,75.9,63.0,64,30.17,10.0,SE,10.4,18.4,N/A,,Scattered Clouds,140,2013-03-31 13:53:00
10:53 AM,78.1,60.1,54,30.16,10.0,SSE,16.1,-,N/A,,Scattered Clouds,160,2013-03-31 14:53:00
11:53 AM,79.0,60.1,52,30.16,10.0,SE,18.4,24.2,N/A,,Partly Cloudy,130,2013-03-31 15:53:00
12:53 PM,79.0,61.0,54,30.13,10.0,SSE,12.7,24.2,N/A,,Scattered Clouds,150,2013-03-31 16:53:00
1:53 PM,79.0,62.1,56,30.12,10.0,SSE,15.0,24.2,N/A,,Scattered Clouds,150,2013-03-31 17:53:00
2:53 PM,80.1,62.1,54,30.11,10.0,SE,13.8,-,N/A,,Mostly Cloudy,130,2013-03-31 18:53:00
3:53 PM,79.0,63.0,58,30.08,10.0,SSE,11.5,21.9,N/A,,Mostly Cloudy,150,2013-03-31 19:53:00
4:53 PM,79.0,64.0,60,30.07,10.0,SE,11.5,-,N/A,,Scattered Clouds,140,2013-03-31 20:53:00
5:53 PM,78.1,64.0,62,30.06,10.0,SE,10.4,-,N/A,,Partly Cloudy,130,2013-03-31 21:53:00
6:53 PM,75.9,64.0,67,30.06,10.0,SE,9.2,18.4,N/A,,Partly Cloudy,140,2013-03-31 22:53:00
7:53 PM,73.9,64.9,73,30.06,10.0,SE,6.9,-,N/A,,Scattered Clouds,140,2013-03-31 23:53:00
8:53 PM,73.0,66.0,79,30.07,10.0,SE,6.9,-,N/A,,Partly Cloudy,130,2013-04-01 00:53:00
9:53 PM,72.0,64.9,78,30.07,10.0,SE,5.8,-,N/A,,Clear,130,2013-04-01 01:53:00
10:53 PM,72.0,66.0,81,30.07,10.0,SE,3.5,-,N/A,,Clear,140,2013-04-01 02:53:00
11:53 PM,72.0,66.0,81,30.08,10.0,SSE,4.6,-,N/A,,Clear,150,2013-04-01 03:53:00